Regional Weather Roundup
Issued by NWS

Home | Current Version | Previous Version | Text Only | Print | Product List | Glossary On
Versions: 1 2 3 4 5 6 7 8 9 10 11 12 13 14 15 16 17 18 19 20 21 22 23 24 25 26 27 28 29 30 31 32 33 34 35 36 37 38 39 40 41 42 43 44 45 46 47 48 49 50
000
ASUS43 KTOP 250008
RWRKS

WEATHER ROUNDUP FOR KANSAS
NATIONAL WEATHER SERVICE GOODLAND KS
700 PM CDT SUN SEP 24 2017

NOTE:  "FAIR" INDICATES FEW OR NO CLOUDS BELOW 12,000 FEET WITH NO
SIGNIFICANT WEATHER AND/OR OBSTRUCTIONS TO VISIBILITY.

KSZ001>006-013>018-027>032-041>047-250100-
NORTHWEST KANSAS

CITY           SKY/WX    TMP DP  RH WIND       PRES   REMARKS
GOODLAND       CLOUDY    53  53 100 N9        29.95R FOG
6HR MIN TEMP:  51; 6HR MAX TEMP:  54; 6HR PCP:  0.26;

HAYS           CLOUDY    72  67  84 NE9       29.86F
HILL CITY      CLOUDY    63  61  93 NE9       29.90F
6HR MIN TEMP:  61; 6HR MAX TEMP:  66; 6HR PCP: TRACE;

RUSSELL        CLOUDY    74  66  76 NE9       29.86S
6HR MIN TEMP:  72; 6HR MAX TEMP:  79; 6HR PCP: TRACE;

$$

KSZ061>065-074>080-084>089-250100-
SOUTHWEST KANSAS

CITY           SKY/WX    TMP DP  RH WIND       PRES   REMARKS
DODGE CITY     PTCLDY    78  63  59 S23G32    29.86R
6HR MIN TEMP:  69; 6HR MAX TEMP:  82;

ELKHART          N/A     75  66  73 SE17        N/A
GARDEN CITY    CLOUDY    73  65  75 S10       29.85R
6HR MIN TEMP:  66; 6HR MAX TEMP:  77; 6HR PCP:  0.01;

GREAT BEND     CLOUDY    79  67  66 SE8       29.86S
LIBERAL        PTCLDY    74  66  76 SE16      29.86
PRATT          CLEAR     81  56  41 S17       29.87R
6HR MIN TEMP:  81; 6HR MAX TEMP:  85;

$$

KSZ066>073-081>083-090>101-250100-
SOUTHEAST KANSAS

CITY           SKY/WX    TMP DP  RH WIND       PRES   REMARKS
CHANUTE        PTCLDY    81  68  64 SE7       29.91R
6HR MIN TEMP:  81; 6HR MAX TEMP:  89;

COFFEYVILLE    MOCLDY    83  69  62 SE6       29.88R
6HR MIN TEMP:  83; 6HR MAX TEMP:  90;

HUTCHINSON     MOCLDY    83  62  49 S14G23    29.86R
6HR MIN TEMP:  83; 6HR MAX TEMP:  91; 6HR PCP: TRACE;

MEDICINE LODGE   N/A     83  57  41 S16G24    29.85R
NEWTON         CLOUDY    83  63  50 S13       29.89R
PARSONS        PTCLDY    74  71  91 CALM      29.91S
6HR MIN TEMP:  74; 6HR MAX TEMP:  90; 6HR PCP:  0.04;

WICHITA INTL   PTCLDY    84  64  50 S12       29.86R
6HR MIN TEMP:  84; 6HR MAX TEMP:  89;

WICHITA JABRA  PTCLDY    83  64  52 S12       29.87R
6HR MIN TEMP:  83; 6HR MAX TEMP:  88;

WICHITA MCCONL PTCLDY    84  63  48 S10       29.87R
WINFIELD       PTCLDY    83  65  54 S10       29.89R
6HR MIN TEMP:  83; 6HR MAX TEMP:  90; 6HR PCP: TRACE;

$$

KSZ007>012-019>026-033>040-048>060-102>105-250100-
NORTHEAST KANSAS

CITY           SKY/WX    TMP DP  RH WIND       PRES   REMARKS
CONCORDIA      CLOUDY    70  69  97 VRB5      29.90R
6HR MIN TEMP:  70; 6HR MAX TEMP:  87; 6HR PCP:  0.04;

EMPORIA        PTCLDY    81  63  54 SE8       29.89R
6HR MIN TEMP:  81; 6HR MAX TEMP:  88;

LAWRENCE       CLOUDY    83  67  58 E5        29.89S
6HR MIN TEMP:  83; 6HR MAX TEMP:  90;

MANHATTAN      PTCLDY    86  63  45 S13       29.85S
6HR MIN TEMP:  86; 6HR MAX TEMP:  93;

MARYSVILLE     CLOUDY    82  64  54 SE6       29.87S
OLATHE IND     CLEAR     81  65  58 SE7       29.92R
6HR MIN TEMP:  80; 6HR MAX TEMP:  88;

OLATHE EXE     CLEAR     79  67  66 S5        29.92R
6HR MIN TEMP:  79; 6HR MAX TEMP:  86;

SALINA         MOCLDY    87  60  40 S9        29.86R
6HR MIN TEMP:  86; 6HR MAX TEMP:  93; 6HR PCP: TRACE;

TOPEKA BILLARD PTCLDY    82  68  62 SE7       29.88R
6HR MIN TEMP:  82; 6HR MAX TEMP:  90;

TOPEKA FORBES  PTCLDY    83  67  58 SE7       29.89R
6HR MIN TEMP:  83; 6HR MAX TEMP:  91;

$$



USA.gov is the U.S. government's official web portal to all federal, state and local government web resources and services.